[[{"header":{"parameterUnit":"m.s-1","parameterCategory":1,"la1":30.2991,"la2":30.254,"lo1":-89.0895,"lo2":-89.0444,"dy":0.0017,"dx":0.0017,"nx":28,"ny":28,"refTime":"2023-09-14T03:00:00:Z","depth":0,"parameterNumber":2,"parameterNumberName":"U-component_of_WINDS"},"data":[0,0,0,0,0,0,0,0,0,0,0,0,0,0,0,0,0,0,0,0,0,0,0,0,0,0,0,0,0,0,0,0,0,0,0,0,0,0,0,0,0,0,0,0,0,0,0,0,0,0,0,0,0,0,0,0,0,0,0.6107,0.6108,0,0.6183,0.6184,0.6185,0.6219,0.6219,0.6219,0.6219,0.6301,0.6303,0.6305,0,0,0,0,0,0,0,0,0,0,0,0,0,0.5992,0.5994,0.6107,0.6108,0.6109,0.6183,0.6184,0.6185,0.6219,0.6219,0.6219,0.6219,0.63,0.6302,0.6305,0,0,0,0,0,0,0,0,0,0,0,0,0,0.6053,0.5995,0.6107,0.6134,0.6138,0.6183,0.6184,0.6186,0.6219,0.6219,0.6219,0.6219,0.6299,0.6302,0.6306,0.633,0,0,0.6316,0.6318,0,0,0,0,0,0,0,0,0.6049,0.6057,0.6129,0.6133,0.6136,0.6191,0.6174,0.6234,0.6219,0.6188,0.6219,0.6219,0.6265,0.6271,0.6286,0.6334,0.6337,0.6316,0.6318,0.632,0.6321,0,0,0,0,0,0,0,0.6045,0.6054,0.6137,0.613,0.6135,0.6144,0.6152,0.6186,0.6227,0.6191,0.6194,0.6202,0.6266,0.6282,0.6288,0.6339,0.6316,0.6319,0.6321,0.6323,0.6411,0.6411,0,0,0,0,0,0,0.6036,0.605,0.6135,0.6139,0.6091,0.6146,0.6156,0.6174,0.6226,0.6234,0.6202,0.6203,0.6277,0.6284,0.6291,0.6323,0.632,0.6323,0.6325,0.6411,0.6411,0.6412,0,0,0,0,0,0,0.6033,0.6043,0.6132,0.6096,0.6108,0.6148,0.6169,0.6176,0.6191,0.6235,0.6242,0.6211,0.6277,0.6286,0.632,0.6326,0.6325,0.6328,0.6411,0.6411,0.6411,0.6388,0,0,0,0,0,0,0.603,0.6042,0.6051,0.6096,0.6109,0.6158,0.6169,0.6177,0.6197,0.6199,0.6245,0.6252,0.6277,0.6315,0.6323,0.6331,0.633,0.641,0.6411,0.6411,0.6388,0.6387,0.6386,0,0,0,0,0,0.6026,0.6042,0.6051,0.6061,0.6121,0.6159,0.6167,0.6194,0.6197,0.6207,0.6235,0.6251,0.6324,0.6318,0.6328,0.6337,0.641,0.6411,0.6411,0.6388,0.6387,0.6386,0,0,0,0,0,0,0.5998,0.6048,0.6059,0.609,0.612,0.6164,0.6178,0.6193,0.6223,0.6224,0.6258,0.6268,0.6299,0.6322,0.6313,0.6363,0.6368,0.6371,0.6348,0.6347,0.6346,0.634,0.6333,0,0,0,0,0,0.5996,0.6021,0.6064,0.6087,0.6101,0.6137,0.6154,0.6173,0.6205,0.6218,0.6249,0.628,0.6311,0.633,0.6361,0.6391,0.6402,0.6403,0.6402,0.6401,0.6403,0.6421,0.6422,0.6414,0.6414,0.6414,0,0,0.5991,0.6021,0.6035,0.6082,0.6107,0.6134,0.6147,0.6174,0.6194,0.6223,0.6256,0.628,0.6318,0.635,0.6366,0.637,0.6407,0.6402,0.6401,0.6403,0.6422,0.6423,0.6423,0.6414,0.6414,0.6414,0,0,0.5996,0.6021,0.6043,0.6068,0.6105,0.6129,0.6134,0.6176,0.6192,0.6226,0.6248,0.6273,0.6325,0.6351,0.6371,0.6385,0.6401,0.6394,0.639,0.6407,0.6408,0.6409,0.6414,0.6416,0.6396,0.6396,0.6396,0,0.5985,0.6025,0.6053,0.6079,0.6099,0.6124,0.6148,0.6171,0.6217,0.623,0.6233,0.6298,0.6326,0.6365,0.6368,0.6383,0.6391,0.6389,0.6405,0.6407,0.6408,0.6413,0.6415,0.6395,0.6395,0.6395,0.6395,0,0.601,0.6037,0.6051,0.6093,0.6115,0.6139,0.6172,0.6191,0.6207,0.6231,0.6265,0.6299,0.6336,0.6347,0.6364,0.6389,0.639,0.6399,0.6405,0.6407,0.6413,0.6415,0.6393,0.6394,0.6394,0.6394,0,0,0.6,0.6057,0.6062,0.6081,0.6125,0.6147,0.6172,0.6208,0.6224,0.6254,0.6277,0.632,0.6329,0.6351,0.6372,0.6387,0.6396,0.6394,0.6396,0.6394,0.6425,0.6418,0.642,0.6407,0.6407,0.6408,0.6422,0,0.6011,0.6057,0.6083,0.6119,0.6144,0.6169,0.6192,0.6221,0.6244,0.627,0.6295,0.6325,0.6334,0.6347,0.6364,0.6391,0.6403,0.6391,0.6429,0.643,0.6419,0.6423,0.6416,0.6428,0.6425,0.6425,0.6425,0,0.6029,0.6059,0.6097,0.6137,0.6149,0.6168,0.6203,0.6227,0.6261,0.6277,0.6301,0.6322,0.6351,0.6354,0.6395,0.6386,0.6403,0.6419,0.642,0.6425,0.6428,0.6429,0.6433,0.6435,0.6429,0.6429,0.6429,0,0.6018,0.6067,0.6096,0.6112,0.616,0.6173,0.6194,0.6228,0.6248,0.6278,0.6292,0.6326,0.6344,0.6371,0.64,0.6399,0.6438,0.6443,0.6452,0.6451,0.646,0.6459,0.6467,0.647,0.647,0.647,0.647,0,0.6028,0.605,0.6092,0.611,0.6136,0.6166,0.6191,0.6214,0.6244,0.6267,0.6291,0.6313,0.635,0.6376,0.6399,0.643,0.6438,0.6452,0.6458,0.645,0.6448,0.6462,0.6462,0.6471,0.647,0.647,0.647,0,0.602,0.6049,0.6082,0.6124,0.6135,0.6153,0.6189,0.6208,0.6231,0.6261,0.627,0.6307,0.6339,0.6371,0.6415,0.643,0.6461,0.6468,0.6449,0.6452,0.6459,0.6458,0.6477,0.6481,0.648,0.648,0.648,0,0.6024,0.6042,0.6085,0.6102,0.6122,0.6149,0.6169,0.6199,0.622,0.626,0.6274,0.6308,0.6336,0.6387,0.6419,0.6452,0.6461,0.6466,0.6467,0.6458,0.6462,0.646,0.6463,0.6465,0.6465,0.6465,0.6465,0,0.6028,0.6042,0.6069,0.6102,0.6125,0.6152,0.618,0.6193,0.6229,0.625,0.6283,0.6305,0.6349,0.6383,0.642,0.6443,0.646,0.6464,0.6468,0.646,0.6448,0.6455,0.6447,0.6463,0.6463,0.6464,0.6464,0.6464,0.6027,0.6044,0.6077,0.6107,0.6131,0.6157,0.6176,0.6202,0.623,0.6267,0.6284,0.6317,0.6351,0.6403,0.6425,0.6452,0.6456,0.6462,0.6463,0.6464,0.6462,0.6443,0.6459,0.6459,0.6459,0.6459,0.6459,0,0.6033,0.6055,0.6083,0.6121,0.6144,0.6157,0.6189,0.6208,0.6237,0.6267,0.6294,0.6332,0.6365,0.6398,0.6433,0.6448,0.6457,0.6457,0.6456,0.6461,0.6457,0.645,0.6449,0.6449,0.6449,0.6449,0.6449,0.6449,0.6039,0.6068,0.6085,0.6127,0.615,0.6182,0.6199,0.6223,0.6247,0.6287,0.6314,0.6336,0.6368,0.6405,0.6435,0.6445,0.6457,0.6454,0.6465,0.6461,0.6461,0.6462,0.6456,0.6456,0.6456,0.6467,0.6468,0.6468]},{"header":{"parameterUnit":"m.s-1","parameterCategory":1,"la1":30.2991,"la2":30.254,"lo1":-89.0895,"lo2":-89.0444,"dy":0.0017,"dx":0.0017,"nx":28,"ny":28,"refTime":"2023-09-14T03:00:00:Z","depth":0,"parameterNumber":3,"parameterNumberName":"V-component_of_WINDS"},"data":[0,0,0,0,0,0,0,0,0,0,0,0,0,0,0,0,0,0,0,0,0,0,0,0,0,0,0,0,0,0,0,0,0,0,0,0,0,0,0,0,0,0,0,0,0,0,0,0,0,0,0,0,0,0,0,0,0,0,0.8988,0.8988,0,0.8998,0.8998,0.8998,0.899,0.8989,0.8989,0.8989,0.8998,0.8998,0.8999,0,0,0,0,0,0,0,0,0,0,0,0,0,0.8958,0.8959,0.8988,0.8988,0.8988,0.8998,0.8998,0.8998,0.899,0.8989,0.8989,0.8989,0.8997,0.8998,0.8999,0,0,0,0,0,0,0,0,0,0,0,0,0,0.897,0.8959,0.8988,0.8985,0.8985,0.8998,0.8998,0.8998,0.899,0.8989,0.8989,0.8988,0.8997,0.8998,0.8999,0.9014,0,0,0.9001,0.9002,0,0,0,0,0,0,0,0,0.8969,0.8971,0.8986,0.8986,0.8985,0.8992,0.8991,0.9003,0.899,0.8988,0.8989,0.8988,0.8996,0.8997,0.9,0.9014,0.9015,0.9001,0.9002,0.9002,0.9002,0,0,0,0,0,0,0,0.8968,0.897,0.8992,0.8986,0.8986,0.8982,0.8983,0.8993,0.8995,0.8988,0.8988,0.8989,0.8996,0.8999,0.9,0.9015,0.9001,0.9002,0.9003,0.9003,0.9038,0.9038,0,0,0,0,0,0,0.8968,0.897,0.8992,0.8992,0.8976,0.8983,0.8985,0.899,0.8995,0.8995,0.8989,0.8989,0.8998,0.8999,0.9,0.9016,0.9002,0.9003,0.9003,0.9037,0.9038,0.9038,0,0,0,0,0,0,0.8968,0.897,0.8991,0.8981,0.8983,0.8984,0.8991,0.8991,0.8994,0.8996,0.8996,0.8993,0.8998,0.8999,0.901,0.9016,0.9003,0.9004,0.9037,0.9037,0.9038,0.9048,0,0,0,0,0,0,0.8967,0.897,0.8977,0.8981,0.8984,0.9002,0.8992,0.8991,0.8996,0.8995,0.8999,0.8999,0.8997,0.9008,0.9011,0.9017,0.9005,0.9036,0.9037,0.9038,0.9047,0.9049,0.9051,0,0,0,0,0,0.8966,0.8981,0.8978,0.898,0.8993,0.9002,0.9004,0.9002,0.8996,0.9002,0.9002,0.8999,0.9015,0.901,0.9012,0.9018,0.9036,0.9037,0.9038,0.9047,0.9049,0.9051,0,0,0,0,0,0,0.8978,0.8981,0.8978,0.8995,0.8998,0.9001,0.9009,0.9005,0.9011,0.9009,0.9006,0.9007,0.9018,0.9019,0.9014,0.9031,0.9024,0.9026,0.903,0.9032,0.9034,0.9033,0.9005,0,0,0,0,0,0.8983,0.8991,0.8993,0.9007,0.9009,0.9008,0.9013,0.9011,0.9014,0.9016,0.9017,0.902,0.9025,0.9029,0.9034,0.9047,0.9046,0.9052,0.9054,0.9055,0.9056,0.906,0.9062,0.9041,0.9041,0.9041,0,0,0.8993,0.8995,0.9001,0.9009,0.9012,0.9019,0.901,0.9019,0.9023,0.9017,0.9026,0.9027,0.903,0.904,0.9045,0.9042,0.9062,0.9057,0.9058,0.9058,0.9061,0.9063,0.9065,0.9042,0.9042,0.9042,0,0,0.9013,0.9017,0.9028,0.903,0.9033,0.9032,0.9034,0.9037,0.9037,0.9046,0.904,0.9045,0.9055,0.9056,0.9058,0.9074,0.907,0.9076,0.9085,0.9088,0.909,0.9091,0.9095,0.9096,0.9077,0.9077,0.9077,0,0.9025,0.9036,0.9034,0.9042,0.9044,0.9038,0.9047,0.9049,0.9054,0.9055,0.9051,0.9061,0.9063,0.9072,0.9075,0.9078,0.9079,0.9076,0.909,0.9091,0.9092,0.9096,0.9097,0.9078,0.9078,0.9078,0.9078,0,0.9048,0.9056,0.9064,0.9067,0.9071,0.908,0.9077,0.908,0.9077,0.9076,0.9083,0.9084,0.9088,0.909,0.9088,0.9098,0.9095,0.9091,0.9083,0.9095,0.9098,0.9099,0.9079,0.9079,0.9078,0.9078,0,0,0.9079,0.9079,0.9082,0.9082,0.9083,0.9088,0.9095,0.9098,0.91,0.9103,0.9107,0.9113,0.9108,0.911,0.9107,0.911,0.9119,0.9105,0.9105,0.9106,0.9127,0.913,0.9132,0.9116,0.9116,0.9117,0.9127,0,0.9098,0.9111,0.9107,0.9118,0.9123,0.9115,0.9121,0.9121,0.9119,0.9122,0.9119,0.9123,0.9117,0.9118,0.912,0.9118,0.9123,0.9117,0.9118,0.9118,0.9117,0.9134,0.9138,0.9147,0.9128,0.9128,0.9128,0,0.9123,0.9125,0.9137,0.9134,0.9136,0.9141,0.9141,0.9145,0.9144,0.9142,0.9142,0.9137,0.9141,0.9134,0.9138,0.9134,0.9133,0.9132,0.9132,0.9132,0.9124,0.9133,0.9151,0.9151,0.9131,0.913,0.913,0,0.9141,0.9147,0.9154,0.9154,0.9152,0.9155,0.9154,0.9153,0.9153,0.9154,0.9153,0.9154,0.9154,0.9154,0.9149,0.9144,0.9152,0.9145,0.9149,0.9149,0.9151,0.9151,0.9168,0.9153,0.9153,0.9153,0.9153,0,0.9162,0.9169,0.9161,0.9166,0.9172,0.9166,0.9173,0.9171,0.9169,0.9171,0.9164,0.9166,0.9159,0.916,0.9155,0.9158,0.9158,0.9155,0.9154,0.9156,0.9156,0.9155,0.9154,0.9153,0.9153,0.9153,0.9153,0,0.9183,0.9179,0.9185,0.9182,0.9181,0.9185,0.9181,0.9184,0.9181,0.9183,0.9183,0.9178,0.9178,0.9172,0.9171,0.9168,0.9172,0.917,0.9172,0.9171,0.9175,0.9174,0.9192,0.9193,0.9177,0.9178,0.9178,0,0.9196,0.9201,0.9197,0.9198,0.9197,0.9199,0.9199,0.9193,0.9193,0.919,0.9192,0.9192,0.9191,0.9191,0.9186,0.9184,0.9181,0.9187,0.9181,0.9181,0.9179,0.9179,0.9178,0.9189,0.9189,0.9189,0.9189,0,0.9219,0.9215,0.9217,0.9216,0.9216,0.9215,0.9214,0.9215,0.9207,0.9208,0.9207,0.9207,0.9205,0.9203,0.92,0.9197,0.9191,0.9191,0.9191,0.9193,0.9193,0.9191,0.9174,0.9191,0.9191,0.919,0.919,0.919,0.9235,0.9238,0.9234,0.9235,0.9233,0.9231,0.9232,0.9228,0.9228,0.9226,0.9222,0.9221,0.9217,0.9212,0.9209,0.9208,0.9205,0.9206,0.9206,0.9206,0.9206,0.9194,0.9207,0.9207,0.9207,0.9207,0.9207,0,0.9255,0.9252,0.9252,0.925,0.925,0.9244,0.9241,0.9241,0.9241,0.9237,0.9236,0.9234,0.9232,0.9226,0.9222,0.9222,0.9219,0.9221,0.9221,0.922,0.921,0.9209,0.9224,0.9224,0.9224,0.9224,0.9224,0.9224,0.9266,0.9269,0.9265,0.9266,0.9263,0.9263,0.9261,0.9258,0.9255,0.9254,0.9252,0.9248,0.9242,0.9238,0.9235,0.9233,0.9231,0.9234,0.9231,0.9222,0.9221,0.9219,0.9218,0.9234,0.9234,0.9241,0.9241,0.9241]}]]